This is the latest recevied weather packets stored in our database for station/object N5ATR. If no packets are shown the sender has not sent any weather packets the latest 10 day(s).
| Time | Temp. | Humidity | Pressure | Rain* | Wind** | Luminosity | Snow |
|---|---|---|---|---|---|---|---|
| 1787938649 | 28.89° C | 34% | 1028.2 hPa | 0 mm | - | 662 W/m² | - |
| 1787938346 | 28.33° C | 33% | 1028.2 hPa | 0 mm | - | 655 W/m² | - |
| 1787938040 | 28.89° C | 33% | 1028.2 hPa | 0 mm | - | 649 W/m² | - |
| 1787937736 | 28.89° C | 33% | 1028.1 hPa | 0 mm | - | 640 W/m² | - |
| 1787937432 | 28.33° C | 33% | 1028.2 hPa | 0 mm | - | 632 W/m² | - |
| 1787937128 | 28.33° C | 34% | 1028.1 hPa | 0 mm | - | 623 W/m² | - |
| 1787936835 | 28.33° C | 34% | 1028.2 hPa | 0 mm | - | 614 W/m² | - |
| 1787936523 | 28.33° C | 34% | 1028.2 hPa | 0 mm | - | 605 W/m² | - |
| 1787936221 | 27.78° C | 35% | 1028.2 hPa | 0 mm | - | 595 W/m² | - |
| 1787935918 | 27.78° C | 35% | 1027.9 hPa | 0 mm | - | 588 W/m² | - |
| 1787935613 | 27.22° C | 36% | 1028.3 hPa | 0 mm | - | 580 W/m² | - |
| 1787935309 | 27.78° C | 37% | 1028.2 hPa | 0 mm | - | 571 W/m² | - |
| 1787935009 | 27.78° C | 36% | 1027.9 hPa | 0 mm | - | 558 W/m² | - |
| 1787934704 | 26.67° C | 39% | 1028.1 hPa | 0 mm | - | 546 W/m² | - |
| 1787934404 | 26.67° C | 39% | 1028.2 hPa | 0 mm | - | 535 W/m² | - |
| 1787934103 | 26.67° C | 40% | 1028.1 hPa | 0 mm | - | 524 W/m² | - |
| 1787933802 | 26.11° C | 40% | 1028.2 hPa | 0 mm | - | 511 W/m² | - |
| 1787933498 | 25.56° C | 40% | 1027.9 hPa | 0 mm | - | 497 W/m² | - |
| 1787933192 | 25.56° C | 41% | 1028.4 hPa | 0 mm | - | 483 W/m² | - |
| 1787932887 | 25.56° C | 41% | 1028.2 hPa | 0 mm | - | 471 W/m² | - |
| 1787932586 | 25° C | 41% | 1028.2 hPa | 0 mm | - | 457 W/m² | - |
| 1787932286 | 25° C | 40% | 1028.1 hPa | 0 mm | - | 444 W/m² | - |
| 1787931986 | 25° C | 41% | 1028.1 hPa | 0 mm | - | 426 W/m² | - |
| 1787931686 | 24.44° C | 43% | 1028.1 hPa | 0 mm | - | 367 W/m² | - |
| 1787931380 | 24.44° C | 42% | 1028.4 hPa | 0 mm | - | 403 W/m² | - |
* Rain latest hour (hover to see other rain measurements)
** Current wind speed in m/s (hover to see current wind gust speed)